Location: Gülübeli Geçidi
(36.8411°N, 29.7411°E)
Time: 12:03:34
(UTC+00:00)

SKYMED 3 - Pass Details

Date: 15 May 2026
Orbit: 536 x 556 km, 97.8° (Epoch: 6 June)

Event Time Altitude Azimuth Distance (km) Brightness Sun altitude
Rises 18:14:04 0° 13° (NNE) 2,723 8.2 -13.3°
Reaches altitude 10° 18:16:12 10° 15° (NNE) 1,828 7.3 -13.6°
Maximum altitude 18:20:09 76° 102° (ESE) 571 4.2 -14.2°
Drops below altitude 10° 18:24:06 10° 188° (S) 1,825 6.7 -14.9°
Enters shadow 18:24:48 - 189° (S) 2,115 7.0 -15.0°
